When you browse on this site, cookies collect data to enhance your experience and personalize the content and advertising you see.
Visit our Privacy Policy to learn more. By continuing to use the site, you agree to this use of cookies and data.
  • In United Kingdom
  • List of Countries
  • For 7 days
  • Water Temperature
  • Weather Map
  • Weather Widgets
  • user-avatar
    Login

    Hourly Weather Uplawmoor

    Today, 22 September, Sunday

    Time Temperature Precipitation Wind Pressure Humidity
    00:00 +11°C° 0 mm 3 mps 738 mmHg 91%
    01:00 +11°C° 0 mm 3 mps 738 mmHg 91%
    02:00 +11°C° 0 mm 4 mps 737 mmHg 91%
    03:00 +11°C° 0 mm 4 mps 736 mmHg 90%
    04:00 +11°C° 0 mm 4 mps 736 mmHg 91%
    05:00 +11°C° 0 mm 4 mps 736 mmHg 91%
    06:00 +11°C° 0 mm 4 mps 736 mmHg 92%
    07:00 +12°C° 0.2 mm 4 mps 736 mmHg 92%
    08:00 +12°C° 0.2 mm 4 mps 736 mmHg 92%
    09:00 +13°C° 0.2 mm 4 mps 735 mmHg 92%
    10:00 +13°C° 2.3 mm 4 mps 735 mmHg 93%
    11:00 +13°C° 2.3 mm 4 mps 735 mmHg 94%
    12:00 +13°C° 0 mm 3 mps 735 mmHg 96%
    13:00 +14°C° 0.2 mm 3 mps 735 mmHg 94%
    14:00 +16°C° 0.2 mm 3 mps 735 mmHg 92%
    15:00 +17°C° 0.2 mm 3 mps 734 mmHg 90%
    16:00 +16°C° 0.6 mm 3 mps 735 mmHg 92%
    17:00 +16°C° 0.6 mm 2 mps 735 mmHg 95%
    18:00 +15°C° 0.6 mm 1 mps 735 mmHg 97%
    19:00 +15°C° 0.5 mm 1 mps 735 mmHg 97%
    20:00 +15°C° 0.5 mm 1 mps 735 mmHg 97%
    21:00 +15°C° 0.5 mm 1 mps 735 mmHg 98%
    22:00 +15°C° 0.1 mm 1 mps 735 mmHg 97%
    23:00 +14°C° 0.1 mm 1 mps 735 mmHg 97%

    Tomorrow, 23 September, Monday

    Time Temperature Precipitation Wind Pressure Humidity
    00:00 +14°C° 0.1 mm 1 mps 735 mmHg 97%
    01:00 +14°C° 0.1 mm 1 mps 735 mmHg 97%
    02:00 +14°C° 0.1 mm 1 mps 735 mmHg 97%
    03:00 +14°C° 0.1 mm 1 mps 735 mmHg 97%
    04:00 +13°C° 0.2 mm 1 mps 735 mmHg 97%
    05:00 +13°C° 0.2 mm 1 mps 736 mmHg 97%
    06:00 +13°C° 0.2 mm 1 mps 736 mmHg 97%
    07:00 +14°C° 0.1 mm 2 mps 736 mmHg 95%
    08:00 +14°C° 0.1 mm 2 mps 736 mmHg 93%
    09:00 +14°C° 0.1 mm 3 mps 736 mmHg 91%
    10:00 +14°C° 0.1 mm 3 mps 736 mmHg 88%
    11:00 +14°C° 0.1 mm 4 mps 737 mmHg 86%
    12:00 +14°C° 0.1 mm 5 mps 737 mmHg 84%
    13:00 +14°C° 0 mm 5 mps 737 mmHg 80%
    14:00 +15°C° 0 mm 4 mps 737 mmHg 76%
    15:00 +15°C° 0 mm 4 mps 737 mmHg 71%
    16:00 +14°C° 0 mm 4 mps 736 mmHg 75%
    17:00 +13°C° 0 mm 4 mps 736 mmHg 79%
    18:00 +13°C° 0 mm 3 mps 735 mmHg 83%
    19:00 +13°C° 0.1 mm 4 mps 735 mmHg 84%
    20:00 +13°C° 0.1 mm 4 mps 735 mmHg 84%
    21:00 +13°C° 0.1 mm 4 mps 735 mmHg 85%
    22:00 +13°C° 0.2 mm 4 mps 734 mmHg 87%
    23:00 +13°C° 0.2 mm 3 mps 734 mmHg 89%

    Day after tomorrow, 24 September, Tuesday

    Time Temperature Precipitation Wind Pressure Humidity
    00:00 +13°C° 0.2 mm 3 mps 734 mmHg 91%
    01:00 +13°C° 1 mm 3 mps 733 mmHg 93%
    02:00 +14°C° 1 mm 2 mps 733 mmHg 94%
    03:00 +14°C° 1 mm 2 mps 733 mmHg 96%
    04:00 +14°C° 0.3 mm 2 mps 732 mmHg 96%
    05:00 +14°C° 0.3 mm 2 mps 732 mmHg 96%
    06:00 +14°C° 0.3 mm 2 mps 732 mmHg 96%
    07:00 +14°C° 0.1 mm 2 mps 732 mmHg 95%
    08:00 +15°C° 0.1 mm 2 mps 732 mmHg 94%
    09:00 +15°C° 0.1 mm 2 mps 731 mmHg 93%
    10:00 +14°C° 0.3 mm 3 mps 731 mmHg 92%
    11:00 +16°C° 0.3 mm 3 mps 731 mmHg 91%
    12:00 +16°C° 0.3 mm 3 mps 731 mmHg 90%
    13:00 +17°C° 0.5 mm 3 mps 731 mmHg 89%
    14:00 +17°C° 0.5 mm 3 mps 730 mmHg 87%
    15:00 +17°C° 0.5 mm 3 mps 730 mmHg 86%
    16:00 +17°C° 1.3 mm 3 mps 730 mmHg 89%
    17:00 +16°C° 1.3 mm 3 mps 730 mmHg 92%
    18:00 +14°C° 1.3 mm 3 mps 729 mmHg 96%
    19:00 +14°C° 1.3 mm 3 mps 730 mmHg 96%
    20:00 +15°C° 1.3 mm 2 mps 730 mmHg 96%
    21:00 +14°C° 1.3 mm 2 mps 730 mmHg 97%
    22:00 +14°C° 0.6 mm 2 mps 730 mmHg 96%
    23:00 +14°C° 0.6 mm 2 mps 730 mmHg 96%

    25 September, Wednesday

    Time Temperature Precipitation Wind Pressure Humidity
    00:00 +14°C° 0.6 mm 2 mps 730 mmHg 96%
    01:00 +14°C° 0.4 mm 1 mps 730 mmHg 96%
    02:00 +14°C° 0.4 mm 1 mps 730 mmHg 96%
    03:00 +14°C° 0.4 mm 1 mps 730 mmHg 96%
    04:00 +14°C° 0.3 mm 1 mps 730 mmHg 96%
    05:00 +13°C° 0.3 mm 1 mps 730 mmHg 96%
    06:00 +13°C° 0.3 mm 1 mps 730 mmHg 95%
    07:00 +13°C° 0.4 mm 1 mps 731 mmHg 95%
    08:00 +14°C° 0.4 mm 1 mps 731 mmHg 95%
    09:00 +14°C° 0.4 mm 1 mps 732 mmHg 96%
    10:00 +14°C° 0.4 mm 1 mps 732 mmHg 95%
    11:00 +14°C° 0.4 mm 1 mps 732 mmHg 94%
    12:00 +14°C° 0.4 mm 1 mps 732 mmHg 94%
    13:00 +14°C° 0.2 mm 2 mps 732 mmHg 94%
    14:00 +14°C° 0.2 mm 2 mps 732 mmHg 95%
    15:00 +14°C° 0.2 mm 2 mps 732 mmHg 95%
    16:00 +14°C° 0.1 mm 2 mps 731 mmHg 95%
    17:00 +14°C° 0.1 mm 2 mps 731 mmHg 95%
    18:00 +13°C° 0.1 mm 3 mps 731 mmHg 95%
    19:00 +12°C° 0.1 mm 3 mps 730 mmHg 94%
    20:00 +12°C° 0.1 mm 4 mps 729 mmHg 94%
    21:00 +12°C° 0.1 mm 4 mps 729 mmHg 94%
    22:00 +12°C° 3.1 mm 4 mps 728 mmHg 94%
    23:00 +12°C° 3.1 mm 4 mps 728 mmHg 95%

    26 September, Thursday

    Time Temperature Precipitation Wind Pressure Humidity
    00:00 +13°C° 3.1 mm 5 mps 727 mmHg 96%
    01:00 +12°C° 0.4 mm 5 mps 727 mmHg 95%
    02:00 +12°C° 0.4 mm 5 mps 727 mmHg 95%
    03:00 +12°C° 0.4 mm 5 mps 727 mmHg 94%
    04:00 +10°C° 0.1 mm 5 mps 728 mmHg 94%
    05:00 +11°C° 0.1 mm 4 mps 728 mmHg 93%
    06:00 +10°C° 0.1 mm 4 mps 728 mmHg 93%
    07:00 +11°C° 0.1 mm 4 mps 728 mmHg 91%
    08:00 +11°C° 0.1 mm 4 mps 729 mmHg 89%
    09:00 +12°C° 0.1 mm 4 mps 729 mmHg 87%
    10:00 +12°C° 0.3 mm 5 mps 729 mmHg 87%
    11:00 +12°C° 0.3 mm 5 mps 729 mmHg 86%
    12:00 +12°C° 0.3 mm 5 mps 729 mmHg 86%
    13:00 +13°C° 0.4 mm 5 mps 729 mmHg 84%
    14:00 +13°C° 0.4 mm 5 mps 729 mmHg 83%
    15:00 +13°C° 0.4 mm 6 mps 729 mmHg 82%
    16:00 +13°C° 0.5 mm 5 mps 729 mmHg 84%
    17:00 +12°C° 0.5 mm 5 mps 729 mmHg 87%
    18:00 +11°C° 0.5 mm 4 mps 729 mmHg 89%
    19:00 +11°C° 0.3 mm 4 mps 729 mmHg 90%
    20:00 +10°C° 0.3 mm 4 mps 729 mmHg 91%
    21:00 +10°C° 0.3 mm 3 mps 729 mmHg 92%
    22:00 +9°C° 0.1 mm 3 mps 729 mmHg 92%
    23:00 +9°C° 0.1 mm 3 mps 729 mmHg 92%

    27 September, Friday

    Time Temperature Precipitation Wind Pressure Humidity
    00:00 +9°C° 0.1 mm 3 mps 729 mmHg 92%
    01:00 +9°C° 0.1 mm 3 mps 729 mmHg 92%
    02:00 +9°C° 0.1 mm 3 mps 729 mmHg 93%
    03:00 +8°C° 0.1 mm 3 mps 729 mmHg 93%
    04:00 +9°C° 0.1 mm 3 mps 729 mmHg 93%
    05:00 +9°C° 0.1 mm 3 mps 728 mmHg 94%
    06:00 +9°C° 0.1 mm 3 mps 728 mmHg 94%
    07:00 +10°C° 0.5 mm 4 mps 728 mmHg 93%
    08:00 +10°C° 0.5 mm 4 mps 728 mmHg 92%
    09:00 +11°C° 0.5 mm 4 mps 727 mmHg 92%
    10:00 +11°C° 0.5 mm 4 mps 727 mmHg 91%
    11:00 +11°C° 0.5 mm 3 mps 727 mmHg 90%
    12:00 +12°C° 0.5 mm 3 mps 727 mmHg 89%
    13:00 +12°C° 0.8 mm 3 mps 727 mmHg 87%
    14:00 +12°C° 0.8 mm 3 mps 727 mmHg 85%
    15:00 +13°C° 0.8 mm 3 mps 727 mmHg 84%
    16:00 +12°C° 0.5 mm 3 mps 727 mmHg 86%
    17:00 +11°C° 0.5 mm 3 mps 727 mmHg 89%
    18:00 +10°C° 0.5 mm 3 mps 727 mmHg 91%
    19:00 +10°C° 0.3 mm 3 mps 727 mmHg 92%
    20:00 +9°C° 0.3 mm 3 mps 727 mmHg 93%
    21:00 +9°C° 0.3 mm 2 mps 728 mmHg 94%
    22:00 +9°C° 0.3 mm 2 mps 728 mmHg 95%
    23:00 +9°C° 0.3 mm 2 mps 728 mmHg 95%
    Show more